Theta_e
309 312 311 307 307 308 309 311 308 303 303 303 304 306 307 306 306 306 305 304 304 303 302 301 301 300 299 297 295 295 295 294 292 292 292 291 291 291 291 291 291 290 289 289 288 288 287 286 286 286 285 285 285 285 285 286 286 285 285 286 286 286 286 287 287 287 287 287 288 288 288 288 288 288 288 288 288 288 288 289 289 289 289 288 288 288
308 309 307 304 305 308 310 310 306 304 304 303 304 305 306 304 301 300 301 302 303 302 301 300 301 301 298 294 294 295 294 293 292 292 292 291 291 290 290 290 290 289 289 288 287 287 287 286 286 285 285 285 285 285 285 285 285 285 285 285 285 286 286 286 286 287 286 287 287 287 287 288 288 288 288 288 288 288 288 288 289 289 289 288 288 288
310 305 304 305 306 307 311 311 308 307 305 303 305 305 305 303 300 301 303 303 301 301 300 300 301 300 295 293 294 293 293 292 292 292 291 290 290 289 289 289 288 288 288 287 287 287 286 286 285 285 285 285 285 285 285 285 285 285 285 285 285 285 286 286 286 286 286 286 286 286 287 287 287 287 287 287 287 288 288 288 288 288 288 288 288 288
307 302 304 309 308 304 306 311 313 310 306 303 303 304 303 302 300 300 302 302 301 300 301 301 301 299 294 293 293 292 292 291 291 291 291 290 289 289 289 288 288 287 287 287 286 286 285 285 285 285 285 284 284 285 284 285 284 284 285 285 285 286 286 286 286 285 285 285 285 286 286 287 287 286 286 286 286 287 287 287 287 287 288 288 288 288
305 303 308 313 311 303 302 309 311 306 304 304 304 302 301 301 300 300 300 300 300 302 303 300 301 302 296 294 293 292 292 291 290 290 290 290 289 288 288 287 287 287 287 286 285 285 285 285 284 284 284 284 284 284 284 284 284 284 285 285 285 286 286 286 285 284 285 285 286 286 286 286 286 286 286 286 286 286 286 286 287 287 287 287 287 288
306 304 306 310 310 306 303 303 302 302 302 305 307 303 300 301 301 300 300 299 300 302 303 299 300 303 297 294 294 292 291 290 290 289 289 289 287 287 286 286 286 286 286 286 285 285 284 284 284 284 284 284 283 283 283 283 284 284 284 284 285 286 285 285 284 284 285 285 286 286 286 286 286 286 285 285 285 285 286 286 286 287 286 286 287 287
304 305 309 308 309 309 305 300 299 301 301 301 304 302 301 301 300 299 298 299 301 301 302 300 298 300 298 296 295 292 291 290 289 288 288 287 286 286 286 286 286 286 285 285 284 284 284 284 283 283 283 283 283 283 283 283 283 284 284 284 285 285 284 284 284 284 285 285 285 286 286 286 285 285 285 285 285 285 285 286 286 286 286 286 286 287
303 307 312 310 309 308 303 300 300 300 299 301 303 301 302 300 297 299 298 298 301 299 301 301 297 297 297 296 295 293 292 290 289 288 287 286 286 286 286 285 285 285 285 284 284 284 283 283 283 282 282 282 282 282 282 283 283 283 284 285 285 284 284 284 284 285 284 284 285 285 285 285 284 284 284 284 284 284 285 285 286 286 286 286 286 286
304 304 305 306 307 305 300 299 300 300 300 304 305 301 301 299 297 300 298 299 299 298 301 300 296 297 296 295 294 294 294 292 290 288 286 286 286 285 285 285 285 284 284 284 283 283 283 282 282 282 281 281 281 282 282 283 283 283 284 284 284 284 284 284 284 285 284 284 285 285 284 284 283 283 282 282 282 283 284 284 285 285 285 285 286 286
304 302 303 304 303 302 302 302 301 300 300 303 303 299 299 298 299 300 297 298 299 298 301 298 295 297 295 295 296 296 295 292 289 287 286 285 285 285 285 284 284 284 283 283 282 282 282 281 281 281 281 281 281 282 282 282 283 283 284 284 284 284 284 284 284 284 284 283 284 284 284 283 283 282 281 281 281 282 282 283 283 284 284 285 285 285
304 302 304 306 304 301 302 303 301 298 298 301 301 298 297 299 301 299 298 299 299 301 304 297 293 295 294 297 298 296 293 289 287 286 285 285 284 284 284 284 283 283 282 282 282 282 281 281 281 280 281 281 281 281 282 282 282 283 283 283 283 283 283 283 284 284 283 283 283 284 284 283 282 281 280 280 281 281 281 282 282 283 283 283 283 284
305 304 305 307 306 302 300 301 301 300 299 300 300 297 296 298 299 298 299 302 299 300 302 295 292 294 295 297 296 293 290 287 286 285 284 285 284 284 284 283 283 282 282 281 281 281 280 280 280 280 280 281 281 281 281 281 281 281 282 282 282 282 282 283 283 283 283 283 283 283 283 283 281 280 280 280 280 280 280 280 281 282 282 282 282 283
305 304 303 305 305 300 299 300 301 304 302 300 299 297 297 298 297 296 297 299 298 297 298 295 293 294 294 295 294 290 288 286 286 285 285 284 283 283 283 282 282 281 281 280 280 280 280 280 280 280 280 280 280 280 279 280 280 280 281 281 281 281 282 282 283 282 282 282 282 283 283 282 281 280 279 279 279 279 279 279 280 280 280 280 280 280
305 306 303 304 303 300 300 300 299 302 301 299 298 298 298 296 296 296 296 297 297 296 296 294 294 295 294 294 293 291 287 286 286 285 285 284 282 282 282 281 281 281 280 280 280 280 280 280 279 280 280 280 279 279 278 279 279 279 279 279 280 280 281 281 281 280 280 280 281 282 282 282 280 280 279 279 278 278 278 278 278 279 279 279 278 278
304 305 303 302 301 300 301 300 298 299 300 298 298 300 298 296 296 297 297 298 296 295 296 294 294 298 298 293 291 290 288 286 285 285 284 283 282 282 281 281 280 280 280 280 280 280 279 279 279 280 280 279 278 278 278 278 278 277 278 278 278 278 279 279 278 278 279 279 280 281 281 281 280 279 279 278 278 278 278 278 278 278 278 278 277 277
302 303 304 301 300 300 300 300 298 298 300 298 298 300 299 298 298 298 298 297 295 295 296 296 296 298 295 290 289 288 287 286 285 284 283 282 281 281 281 280 280 280 280 279 279 279 279 279 279 279 279 278 278 278 278 277 277 277 277 277 277 277 277 277 277 278 279 279 280 280 281 280 279 279 278 278 278 277 277 277 277 277 277 277 276 276
301 302 303 302 302 301 298 299 299 298 300 300 298 298 298 296 297 298 297 295 295 296 296 296 296 294 292 290 289 287 286 285 284 283 282 281 281 281 280 280 280 280 279 279 279 279 279 279 279 279 278 278 278 278 277 277 277 277 276 276 276 276 276 276 276 277 278 279 279 280 280 279 279 278 278 277 277 277 277 277 277 276 276 275 275 274
301 301 301 301 304 303 299 299 300 299 299 299 299 297 297 297 297 297 296 295 296 297 295 295 295 294 294 293 289 286 286 284 283 283 282 281 281 280 280 280 279 279 279 279 279 279 279 279 279 279 278 278 278 277 277 277 277 277 276 276 276 275 275 275 276 277 277 277 278 279 279 278 278 278 277 277 277 276 276 275 275 274 274 274 274 274
300 300 301 300 301 301 300 299 300 301 299 297 298 297 297 297 297 297 296 296 296 296 296 295 295 295 295 293 289 286 285 284 283 282 281 281 280 280 280 279 279 279 279 279 279 279 279 279 279 278 278 278 278 277 277 277 277 276 276 275 275 274 274 275 276 276 276 276 276 277 278 278 277 276 276 276 276 275 274 274 273 273 273 273 273 273
300 300 302 301 299 299 300 300 299 301 300 298 299 298 297 297 297 297 296 296 297 296 296 296 295 295 294 290 286 285 284 283 282 282 281 280 280 280 280 279 279 279 279 279 279 278 279 279 278 278 278 278 277 277 277 277 276 276 275 275 274 274 274 274 275 275 275 274 274 275 275 275 275 275 275 275 274 273 273 272 272 272 272 272 273 273
299 301 301 300 299 297 298 299 298 297 298 299 299 297 297 297 296 296 295 296 296 295 295 295 295 295 290 286 285 284 283 282 281 281 280 280 280 280 280 279 279 279 279 279 279 279 279 278 278 278 278 278 277 277 277 276 276 275 274 274 273 273 274 274 274 274 274 274 273 273 273 273 274 274 274 273 273 272 272 272 272 272 272 272 273 274
299 300 299 298 297 297 296 297 297 297 296 297 297 296 297 297 296 296 295 295 295 294 294 293 294 294 289 285 285 284 283 282 281 280 280 280 280 280 280 279 279 279 279 279 279 279 278 278 278 278 278 278 277 277 277 276 275 275 274 273 273 272 273 273 273 273 273 272 272 272 272 272 272 272 272 272 271 271 271 271 271 272 272 273 273 274
298 299 299 298 297 297 297 296 297 299 297 295 296 296 296 296 295 295 295 294 293 294 294 293 293 293 288 285 285 284 282 282 281 280 280 280 280 280 280 279 279 279 279 279 279 278 278 278 278 278 278 277 277 277 276 276 275 274 273 272 272 272 272 272 272 272 271 271 271 271 271 271 270 271 271 271 270 270 270 271 272 272 273 273 274 275
298 299 298 297 296 296 298 297 296 299 297 293 294 294 294 295 295 295 294 293 293 293 293 293 293 292 288 286 286 285 283 282 281 281 280 280 280 280 280 279 279 279 279 279 279 278 278 278 278 278 277 277 277 276 276 275 274 273 272 272 271 271 271 271 271 270 270 271 270 270 270 270 270 270 269 269 269 269 270 271 272 272 273 274 274 275
297 299 298 296 295 295 296 295 294 296 295 291 292 293 294 295 295 293 292 292 293 294 294 293 292 292 289 288 287 286 284 282 281 281 281 280 280 280 279 279 279 279 279 279 279 278 278 278 278 278 277 277 277 276 275 274 273 272 272 271 270 270 270 270 269 270 270 270 269 269 269 269 269 269 268 268 268 268 269 271 271 271 272 272 273 274
296 298 296 295 297 296 295 295 295 294 292 291 292 293 293 293 292 292 291 291 292 293 292 291 291 290 289 288 287 286 284 282 282 282 281 280 280 280 279 279 279 279 279 279 278 278 278 278 278 278 277 277 276 275 274 273 272 271 271 270 270 270 269 269 269 269 269 269 269 269 269 268 268 268 268 268 268 268 269 270 270 270 271 272 273 274
297 298 296 295 296 296 295 295 293 292 291 291 292 292 292 291 290 291 292 292 292 290 289 290 289 288 288 287 286 285 283 282 282 282 281 280 280 280 279 279 279 279 279 279 278 278 278 278 278 278 277 277 276 275 273 272 271 271 270 270 269 269 269 268 268 269 269 268 268 268 268 267 267 267 267 267 268 268 268 269 270 270 271 272 272 273
296 296 296 295 294 295 294 292 291 291 291 291 292 292 291 291 291 292 293 292 289 287 288 288 288 287 287 286 285 283 282 282 282 281 281 280 280 280 279 279 279 279 279 279 278 278 278 278 277 277 277 276 275 274 273 272 271 270 269 269 269 268 268 268 268 268 268 268 268 267 267 267 267 267 267 267 268 268 268 269 270 271 271 271 271 271
295 295 296 294 293 293 291 290 290 290 290 290 291 290 290 290 291 291 291 289 286 286 287 287 286 286 286 285 284 282 282 282 282 281 281 280 280 279 279 279 279 279 279 279 278 278 278 277 277 277 276 275 274 273 272 271 270 270 269 268 268 268 268 267 267 267 267 267 267 267 267 267 267 267 267 267 268 268 268 269 270 270 270 270 270 270
293 297 299 295 292 292 291 291 291 290 290 290 290 289 289 288 289 288 286 285 285 286 286 286 286 286 285 284 283 282 283 282 281 281 280 280 280 279 279 279 279 279 278 278 278 278 277 277 277 277 276 275 273 272 271 271 270 269 268 268 268 267 267 267 267 267 267 267 266 266 266 267 267 267 267 267 267 267 268 269 269 270 269 269 269 269
292 296 297 294 292 292 292 292 291 290 290 289 288 289 287 286 286 285 285 285 286 286 286 286 286 286 285 284 283 283 282 281 281 280 280 280 279 279 279 279 279 278 278 278 277 277 277 277 277 276 275 274 273 272 271 270 269 269 268 268 267 267 267 266 266 266 266 266 266 266 266 267 267 267 267 267 267 267 268 268 269 269 269 268 268 268
294 294 293 293 293 293 292 292 291 289 289 290 290 288 286 285 286 286 286 286 286 286 286 286 285 285 284 283 283 282 281 281 280 280 279 279 279 279 279 279 279 278 278 278 277 277 277 276 276 276 275 273 272 271 270 269 269 268 267 267 267 267 266 266 266 266 266 266 266 266 266 267 267 267 267 267 267 267 268 268 268 268 268 268 268 268
292 291 293 293 293 293 293 291 290 289 290 292 290 286 285 286 286 286 286 286 286 286 286 285 285 284 283 282 282 281 281 280 280 280 279 279 279 279 279 278 278 278 278 278 277 277 276 276 276 275 274 272 271 270 270 269 268 267 267 267 267 266 266 266 266 266 266 266 266 266 266 266 267 267 267 267 267 267 267 268 268 267 267 267 268 268
291 291 293 292 292 294 293 290 289 290 292 291 287 284 285 286 285 286 286 286 286 286 285 284 284 283 282 282 281 280 280 280 280 280 279 279 279 279 278 278 278 278 277 277 276 276 276 275 275 274 273 271 270 270 269 268 267 267 267 266 266 266 266 266 266 266 266 266 266 266 266 266 266 267 267 267 267 267 267 267 267 267 267 268 268 268
293 291 291 291 291 293 292 290 291 292 291 289 286 285 286 285 286 286 286 286 286 285 284 283 282 282 282 281 280 280 280 280 280 280 279 279 279 278 278 278 278 277 277 276 275 275 275 274 274 273 271 270 270 269 269 268 267 267 266 266 266 266 266 266 266 266 266 266 266 266 266 266 266 266 267 267 267 267 267 267 267 267 267 267 268 268
291 291 291 291 292 293 293 292 291 292 291 288 287 287 286 286 286 286 285 286 285 283 282 282 281 281 281 280 280 280 280 280 280 280 280 279 279 278 278 278 277 276 275 275 274 274 273 273 272 271 270 269 269 269 268 267 266 266 266 266 266 266 266 266 266 266 266 266 266 266 266 266 266 266 266 266 266 266 266 267 267 267 267 267 268 268
290 292 292 291 292 292 292 291 291 291 291 289 287 287 286 285 285 284 284 285 284 282 282 281 281 281 280 280 280 280 280 280 279 279 279 279 278 278 278 277 276 275 274 273 273 272 272 271 270 269 269 268 268 268 267 266 266 266 265 266 266 266 266 266 266 266 266 266 266 266 266 266 266 266 266 266 266 266 266 267 267 267 267 268 268 268
289 291 292 292 292 292 290 290 290 291 291 289 287 287 286 285 284 284 284 284 283 282 281 281 280 280 280 280 280 280 280 279 279 279 279 278 278 277 276 276 275 273 272 271 271 271 270 269 269 268 268 268 268 267 266 265 265 265 265 265 265 265 266 266 266 265 265 265 265 265 266 266 266 266 266 266 266 266 266 267 267 267 267 268 268 269
291 290 290 291 292 291 290 289 289 290 290 288 286 286 285 284 284 284 283 282 282 282 281 281 280 280 280 280 280 280 279 278 278 278 277 277 276 275 274 274 272 271 270 270 270 269 268 268 268 267 267 267 267 266 265 265 265 265 265 265 265 265 265 265 265 265 265 265 265 265 265 265 266 266 266 266 266 266 266 266 267 267 267 268 268 269
297 294 291 291 292 290 290 290 290 289 290 288 285 285 285 284 284 283 281 281 282 281 281 281 280 280 280 280 279 279 278 277 277 277 277 276 275 274 273 271 270 270 269 269 268 267 267 267 267 267 267 267 266 265 264 264 264 265 265 265 265 265 265 265 265 265 265 265 265 265 265 265 265 266 266 266 266 266 266 266 267 267 268 268 269 269
298 296 292 291 291 290 289 289 290 290 289 287 285 285 284 284 283 282 281 282 282 281 281 280 280 280 279 279 278 277 277 277 277 276 275 274 273 272 272 269 269 269 268 267 267 266 266 267 267 267 266 265 264 264 264 264 264 264 264 264 264 264 264 264 265 265 265 265 264 265 265 265 265 265 265 266 266 266 266 267 267 268 268 268 269 270
294 293 291 290 290 290 290 289 289 290 288 285 285 285 284 283 282 282 282 282 281 280 280 280 279 279 278 277 276 275 275 276 275 274 273 272 271 271 270 269 268 268 267 266 266 266 266 266 266 265 265 264 264 264 264 264 264 264 264 264 264 264 264 264 264 264 264 264 264 264 265 265 265 265 265 266 266 266 267 267 267 268 268 269 269 270
291 291 292 291 289 289 289 288 288 289 288 285 284 284 283 282 282 282 281 281 281 280 280 279 278 277 276 275 274 274 274 274 273 272 271 270 269 269 269 268 268 267 265 265 265 265 265 264 264 264 264 264 263 263 264 264 264 264 264 264 264 264 264 264 264 264 264 264 264 264 264 265 265 265 265 266 266 266 267 267 267 268 268 269 269 270
291 290 291 290 289 288 288 288 288 289 287 284 284 283 283 282 282 281 281 280 280 280 279 278 277 275 274 274 273 273 272 272 271 270 269 268 268 269 268 268 267 265 264 265 265 264 263 263 263 263 263 263 263 263 263 263 263 263 263 263 263 263 264 264 263 263 264 264 264 264 264 264 265 265 265 266 266 267 267 267 268 268 268 269 269 270
291 290 290 289 289 289 288 288 288 287 285 284 284 283 282 282 281 281 280 280 279 278 277 276 275 274 273 273 272 271 271 270 269 269 268 267 268 268 267 266 265 264 264 264 264 263 262 262 262 262 263 263 263 263 263 263 263 263 263 263 263 263 263 263 263 263 263 263 263 264 264 264 264 265 266 266 266 267 267 267 268 268 268 269 269 270
291 289 287 287 289 288 287 287 287 285 284 284 283 282 282 281 281 280 280 279 278 277 276 274 273 273 272 271 270 269 269 269 268 267 267 267 267 267 265 264 264 263 264 263 262 261 261 261 262 262 262 262 262 262 263 263 263 263 263 263 263 263 263 263 263 263 263 263 263 264 264 264 265 265 266 266 267 267 267 268 268 268 269 269 270 270
289 287 286 286 286 286 285 286 285 284 283 283 282 282 281 281 281 280 278 278 277 275 274 273 272 272 270 269 268 268 268 267 267 266 266 266 266 265 264 263 263 263 263 262 261 261 261 261 261 262 262 262 262 262 262 262 262 262 263 263 263 263 263 263 263 263 263 263 263 264 264 264 265 265 266 266 267 267 268 268 268 268 269 270 270 271
288 287 286 285 285 284 284 285 284 283 283 283 282 281 280 280 280 279 277 277 276 274 273 272 271 270 269 268 268 267 266 266 266 265 265 265 264 263 263 262 262 262 262 261 260 260 260 261 261 261 261 262 262 262 262 262 262 262 262 262 263 263 263 263 263 263 263 263 263 264 264 265 265 265 266 267 267 268 268 268 269 269 270 270 271 271
287 287 285 284 284 284 284 284 283 282 282 282 281 280 280 279 278 277 276 275 274 272 271 270 269 269 267 267 267 267 265 265 265 264 264 263 263 262 262 261 261 261 261 260 260 260 260 260 260 261 261 261 261 261 262 262 262 262 262 262 262 262 262 262 263 263 263 263 263 264 264 265 265 266 266 267 267 268 268 269 269 270 271 272 272 273
286 285 284 284 284 284 284 283 282 282 282 281 280 280 280 279 277 275 274 273 272 271 269 268 268 267 267 267 267 266 264 264 264 263 262 262 261 261 261 260 260 260 260 260 260 260 260 260 260 260 261 261 261 261 261 261 261 262 262 262 262 262 262 262 263 263 263 263 264 264 265 265 266 266 266 267 268 268 269 270 270 271 272 273 274 275
285 285 284 284 284 284 283 283 282 281 281 280 280 280 279 277 275 274 273 272 270 269 268 267 266 266 266 266 266 265 263 263 263 262 261 261 260 260 260 259 259 260 259 259 259 259 259 259 260 260 260 261 261 261 261 261 261 261 262 262 262 262 262 262 263 263 263 264 264 264 265 265 266 266 267 267 268 268 269 270 271 272 273 273 274 276
Wind_Speed
4 5 5 2 4 6 6 3 4 2 2 2 3 2 5 6 4 6 9 8 6 5 8 5 6 10 10 10 6 5 10 10 9 9 8 8 7 6 6 5 6 5 5 7 9 15 19 19 22 26 28 28 29 28 23 21 24 27 28 28 29 29 27 27 26 25 25 26 26 26 26 25 23 21 22 23 24 23 23 23 24 25 21 21 25 27
6 6 4 4 6 5 4 1 2 3 3 4 3 2 5 5 8 9 8 8 5 5 11 8 7 9 6 8 7 8 11 9 10 10 9 9 7 5 6 6 6 4 5 9 12 16 19 18 22 27 28 29 29 27 23 23 26 29 29 28 29 29 26 25 25 25 25 25 26 26 26 25 24 23 22 23 23 23 23 22 23 25 25 23 25 26
6 4 5 7 3 2 4 4 6 6 4 4 3 2 4 5 8 9 6 3 4 5 11 9 6 5 7 9 8 9 10 8 9 10 9 8 8 6 6 6 6 5 6 8 10 15 18 19 23 26 27 29 28 26 25 26 29 30 29 28 29 27 22 23 25 25 26 26 27 26 26 24 23 21 21 22 22 23 23 22 22 23 25 25 26 27
3 2 4 3 4 6 6 6 7 6 4 3 2 2 4 5 5 6 6 4 3 4 8 8 5 2 6 8 9 10 10 10 9 10 9 8 8 7 6 6 7 7 8 9 10 14 18 21 24 26 28 28 26 27 29 30 32 32 29 28 27 22 19 23 27 28 28 27 27 26 27 25 22 20 20 21 22 23 23 23 23 23 24 25 26 27
1 5 2 4 8 7 4 5 5 4 5 4 3 2 5 7 5 7 10 10 6 4 4 6 5 2 4 6 7 6 8 9 7 8 9 7 7 6 6 9 9 8 8 9 10 13 17 21 24 26 27 25 25 28 30 31 32 31 30 29 24 19 20 26 28 28 28 27 27 27 26 24 21 20 21 22 23 24 25 25 25 24 25 25 26 27
2 5 1 4 7 7 5 3 1 2 4 5 3 3 5 9 9 11 12 9 6 4 3 5 4 2 2 6 6 4 6 7 5 8 9 6 7 8 9 10 8 7 7 8 10 13 17 21 23 25 24 23 26 29 31 32 30 31 32 27 21 20 25 28 26 25 25 26 26 25 23 20 19 19 20 21 22 25 27 27 27 27 27 26 26 27
2 3 3 5 4 6 5 2 2 2 3 4 4 3 5 8 10 13 11 4 2 4 3 4 2 3 0 4 4 4 6 6 5 8 8 7 8 8 9 8 8 8 7 8 11 14 17 20 22 23 23 26 29 32 33 31 28 30 30 22 21 27 30 28 24 21 22 25 26 23 20 19 18 18 20 22 23 25 26 27 28 28 27 26 26 27
2 5 6 5 5 6 4 4 3 3 0 5 5 2 6 9 11 12 8 2 3 3 3 3 1 4 2 2 3 5 6 5 6 8 8 8 8 8 9 8 9 9 9 9 11 13 16 19 21 23 26 30 32 34 34 29 28 29 23 19 26 31 31 28 23 19 19 22 22 20 19 19 18 17 19 22 23 24 25 26 27 27 27 26 26 26
2 4 4 2 4 4 2 4 4 2 1 7 6 3 6 9 9 10 6 3 3 1 2 6 3 2 3 2 3 5 5 4 4 6 7 8 9 9 9 9 9 9 9 10 11 13 16 20 23 26 29 32 33 34 33 30 31 28 21 24 31 30 29 29 26 20 18 20 19 18 18 19 19 18 18 20 21 23 23 24 25 26 27 27 27 26
2 1 3 2 3 1 5 6 4 3 3 7 5 5 6 6 5 6 4 2 1 0 4 5 2 1 3 1 4 3 3 3 2 5 6 7 8 8 9 8 9 9 9 11 13 15 18 21 25 28 30 32 32 33 33 32 33 29 26 29 31 29 30 31 30 25 20 19 19 20 20 19 19 19 18 19 20 21 21 22 23 23 25 26 26 26
5 2 3 2 1 3 4 6 4 5 5 5 4 6 8 5 3 2 1 1 2 2 5 4 1 2 3 2 3 1 3 3 3 4 6 7 8 9 9 8 9 10 9 11 12 15 19 22 27 30 31 33 34 34 35 35 34 31 30 32 31 31 32 33 33 29 24 22 22 23 22 19 19 17 16 17 18 18 19 20 21 21 22 25 25 25
8 2 1 3 2 1 2 4 3 2 4 4 3 5 8 6 2 2 3 4 3 5 5 3 1 4 4 3 3 4 5 5 4 4 6 7 8 8 7 7 8 9 10 10 10 13 19 23 27 31 31 31 33 34 37 38 36 34 34 34 33 33 36 36 33 30 28 28 28 26 23 21 19 16 15 16 16 16 17 18 20 21 22 23 23 24
5 1 2 5 2 3 4 4 4 4 5 5 4 5 7 6 5 4 4 3 3 6 5 1 4 4 4 2 5 8 5 5 5 4 4 5 6 7 7 8 8 8 10 11 11 13 16 20 24 26 26 28 30 34 37 37 35 35 34 34 34 34 36 34 30 29 31 33 33 30 26 24 21 16 14 15 15 16 16 17 19 21 22 21 22 24
5 4 5 5 2 3 5 4 6 5 4 5 3 3 3 3 5 7 4 3 6 7 4 2 5 3 3 1 5 8 6 5 5 5 4 4 6 8 8 8 8 9 10 11 12 12 13 18 22 22 22 26 29 33 35 35 35 36 35 35 36 35 34 32 31 33 35 36 36 33 30 26 21 16 14 14 16 17 17 17 19 20 21 21 23 25
4 5 3 3 2 3 4 2 3 4 4 3 1 3 1 1 3 6 3 3 9 10 5 4 3 4 4 2 6 6 5 6 5 3 2 3 4 5 6 7 9 11 11 11 11 11 14 21 23 19 21 26 30 33 33 33 35 35 36 37 37 37 37 37 38 38 38 37 36 36 35 29 19 15 14 15 17 18 19 20 19 20 21 23 25 27
2 6 5 2 2 1 5 4 2 2 4 3 1 2 2 1 3 4 5 5 7 9 5 2 2 3 2 4 7 6 5 5 4 3 4 5 5 6 7 9 10 10 10 10 11 11 16 23 21 17 23 28 30 31 31 32 33 34 36 37 38 39 39 40 41 40 39 37 35 37 35 26 17 16 16 17 19 20 22 21 20 20 21 24 28 32
1 6 7 6 4 0 2 5 2 2 2 2 2 3 5 3 5 3 7 3 1 6 4 1 4 2 2 2 4 2 3 5 8 8 8 8 9 10 10 10 10 10 10 11 11 11 18 22 17 17 25 29 29 30 30 31 31 32 35 36 37 40 41 42 42 39 37 34 33 34 27 19 16 18 18 20 23 24 22 20 19 21 25 29 34 38
1 7 8 3 4 5 2 3 3 0 1 1 3 5 5 0 3 1 4 3 1 6 4 2 5 4 0 3 1 5 9 10 10 9 7 8 10 11 10 10 10 10 10 11 10 12 19 18 14 20 28 29 28 29 30 31 30 31 34 34 37 41 44 43 40 35 33 32 31 30 23 18 19 21 23 26 25 22 20 21 24 28 32 36 39 40
1 5 7 1 3 8 4 2 4 4 0 1 3 2 2 3 4 2 2 6 5 6 6 6 7 4 3 3 3 7 8 8 8 8 7 9 10 10 10 9 10 10 9 10 9 11 15 15 16 23 28 28 28 28 29 30 29 31 33 34 38 42 43 42 38 34 33 31 31 29 25 24 25 26 28 27 23 21 24 28 32 35 38 40 39 37
0 1 6 3 2 7 6 3 4 5 4 3 2 3 2 1 5 3 2 4 5 5 7 10 10 4 3 1 3 4 4 4 6 6 6 8 8 8 9 9 10 10 9 9 9 10 12 15 19 25 27 26 27 27 27 28 28 30 33 36 39 42 43 40 37 35 34 32 31 30 30 31 31 30 28 24 22 26 30 33 36 39 40 38 36 34
1 1 5 6 6 6 5 2 3 5 4 4 4 5 5 2 3 4 3 1 1 3 5 8 10 4 2 2 1 1 3 4 4 5 5 6 8 9 9 9 10 10 9 10 9 10 12 16 21 25 25 26 26 25 25 26 27 29 32 35 37 41 42 38 35 36 34 31 31 32 35 35 32 28 25 25 28 31 32 35 38 38 36 34 33 32
0 1 4 7 6 5 6 6 5 4 3 1 3 4 4 4 3 5 6 2 1 2 3 6 11 6 2 4 2 1 3 3 2 6 6 7 9 10 10 10 11 10 11 11 10 10 12 16 21 24 24 24 24 22 23 25 27 29 31 33 36 40 40 37 34 33 32 32 32 33 31 29 27 27 28 29 29 30 32 36 36 35 33 32 31 30
1 1 3 6 6 7 11 6 1 1 2 1 2 2 1 3 2 3 8 7 6 6 4 5 9 5 2 5 4 2 1 1 4 6 8 9 9 11 12 12 12 12 12 12 11 11 12 17 21 22 23 23 21 20 22 24 27 29 31 34 39 41 39 35 32 32 33 32 30 28 27 28 28 28 27 26 26 29 33 35 33 31 29 28 28 28
1 2 3 7 6 7 8 4 2 1 2 3 4 2 2 3 3 4 7 6 6 8 8 6 7 5 2 5 1 2 1 3 5 6 9 10 9 10 12 13 13 13 13 12 11 11 14 18 19 19 20 21 20 20 22 23 25 28 31 35 40 41 35 32 33 33 31 27 27 29 30 29 27 24 24 26 28 31 34 31 27 25 24 24 24 24
1 1 2 5 8 8 7 6 5 3 4 5 5 4 2 4 6 7 5 2 2 6 7 7 9 7 1 2 10 12 5 4 7 8 9 11 11 11 12 12 13 14 13 13 12 11 13 15 16 17 18 19 20 19 19 22 25 29 31 33 37 37 34 34 34 31 25 26 31 32 27 24 23 23 26 28 29 31 30 27 25 26 25 25 23 23
1 1 0 2 5 9 9 9 9 9 8 6 6 8 5 4 7 7 4 2 3 5 5 6 10 12 9 12 18 16 10 9 11 11 11 11 12 12 13 13 13 13 13 13 13 12 12 14 14 16 18 20 19 17 17 20 23 27 31 33 34 35 34 34 31 27 26 27 28 25 21 22 23 25 26 27 27 29 28 26 26 27 26 24 22 22
1 1 3 4 5 7 9 11 11 11 10 11 13 14 11 8 7 3 2 4 6 7 6 6 10 15 17 20 19 15 13 14 15 15 13 12 12 13 13 13 14 14 13 12 12 12 14 14 14 17 19 18 15 16 18 20 23 27 32 34 35 34 32 30 28 27 27 26 23 21 23 26 27 26 26 26 27 28 27 27 27 26 23 21 21 21
3 3 5 6 8 10 11 14 15 12 10 14 16 15 13 12 6 2 3 6 8 9 10 12 15 19 22 21 17 13 12 13 15 16 14 13 14 14 13 14 16 15 14 13 12 13 15 15 14 17 20 16 12 15 17 18 23 28 31 33 35 32 30 28 27 27 27 26 25 25 27 28 28 27 26 26 26 27 27 27 25 21 19 20 22 23
4 3 5 3 8 12 12 14 16 11 9 12 13 13 13 12 5 2 4 8 8 7 12 19 22 22 22 18 14 12 13 14 15 16 14 14 15 15 15 17 17 15 14 14 14 15 15 15 14 17 18 15 13 15 16 15 21 27 29 32 33 30 28 27 27 27 27 26 26 27 28 28 27 26 25 25 25 25 25 24 22 19 20 24 26 26
3 4 4 2 9 14 13 13 12 9 10 13 14 14 11 8 5 3 4 7 9 10 15 21 24 22 16 12 13 14 15 15 14 14 15 16 16 17 18 18 17 16 16 16 16 15 14 14 15 16 16 13 12 16 17 18 21 25 30 32 31 28 27 26 26 26 26 26 26 27 27 26 24 23 23 23 24 25 25 24 22 21 24 27 29 30
1 3 3 2 7 12 11 10 8 8 12 15 14 12 8 6 5 5 5 7 10 14 18 21 21 17 9 9 14 15 14 15 16 16 17 16 17 18 19 19 19 19 18 17 16 15 14 14 15 15 12 11 15 20 22 22 23 26 31 33 29 26 26 26 25 25 25 25 26 26 25 24 23 23 23 23 24 25 24 24 24 25 27 29 30 30
2 3 3 4 6 10 9 10 14 15 14 11 9 9 7 5 4 5 7 10 13 18 22 20 15 10 8 11 16 16 16 17 17 18 17 16 18 19 18 20 21 20 20 19 17 15 16 17 16 13 11 14 20 24 25 25 25 26 30 31 27 25 25 25 25 25 25 25 25 24 24 23 23 23 23 24 23 23 23 23 25 27 28 29 30 29
1 2 4 3 5 11 12 13 15 13 10 7 4 2 5 8 9 9 10 13 16 16 16 14 10 10 13 16 17 17 18 18 16 15 16 17 19 18 17 20 22 22 20 19 18 17 17 19 17 14 15 19 23 26 27 26 25 26 29 29 27 25 25 25 25 24 24 24 24 23 23 24 24 24 24 23 23 23 23 24 25 27 27 28 28 27
2 1 3 1 2 9 14 13 11 8 7 5 1 2 3 9 12 15 17 18 18 14 10 9 11 15 16 16 17 19 19 17 16 16 16 17 16 15 17 21 21 20 19 19 20 18 19 20 19 18 20 23 26 29 28 23 23 28 31 28 25 24 25 25 25 24 23 23 24 24 24 24 24 24 23 23 23 23 23 24 25 25 25 25 25 24
3 3 3 1 1 6 9 7 8 9 6 0 3 1 4 7 12 18 20 19 18 13 9 11 15 18 18 17 17 18 18 18 18 18 17 16 16 18 21 22 20 18 19 19 19 19 22 24 22 21 24 26 30 31 26 21 24 30 32 28 23 23 24 25 24 24 23 24 24 24 24 24 24 24 24 23 23 24 24 24 24 25 24 24 23 23
3 3 2 1 2 5 8 7 7 11 8 1 2 6 8 9 13 17 17 16 11 6 8 14 18 18 18 18 17 17 18 18 16 14 14 16 19 21 20 19 19 19 19 20 20 22 26 26 24 25 27 30 33 29 22 22 27 31 30 26 22 23 24 24 23 23 24 25 25 24 24 24 24 24 24 24 25 24 24 24 24 24 24 24 24 23
1 1 2 2 1 1 6 6 7 11 9 3 4 8 9 11 15 15 16 12 5 4 12 18 20 20 20 20 20 20 20 18 12 9 10 18 22 20 18 19 20 20 22 26 28 28 27 27 28 29 31 34 31 23 21 27 31 30 27 24 22 24 25 23 23 24 25 25 25 25 24 25 25 24 24 25 24 23 23 22 23 23 23 23 23 23
1 1 1 2 2 1 4 7 7 10 8 3 5 11 12 14 17 17 15 9 4 9 17 19 20 23 24 23 24 23 19 15 11 9 14 20 22 20 20 22 23 26 28 31 31 28 28 30 31 32 34 33 25 22 27 32 31 27 24 23 23 24 24 23 24 25 25 26 26 26 25 25 25 25 24 24 23 23 23 22 23 25 26 24 23 24
3 1 3 1 3 2 3 6 6 6 5 4 9 15 16 15 17 15 12 8 8 14 18 18 21 25 24 24 25 21 16 13 12 14 19 22 22 21 20 21 26 30 31 30 29 28 30 32 31 33 33 27 23 26 33 33 28 25 23 24 24 24 23 24 25 25 26 27 26 26 25 25 25 25 24 24 24 24 25 25 26 27 26 23 23 25
5 4 3 1 5 4 3 4 4 4 5 7 13 18 18 17 15 12 9 9 13 17 17 18 22 24 23 25 23 17 14 14 14 17 21 22 23 24 23 24 29 30 29 30 31 32 33 32 30 30 29 25 26 31 32 29 26 24 24 25 24 24 25 26 26 26 27 27 27 26 26 25 25 25 25 26 26 26 28 29 29 27 25 24 24 24
3 2 2 1 5 5 4 4 4 4 4 8 15 18 18 17 12 8 7 11 17 19 17 18 23 24 23 23 20 15 15 16 16 19 22 22 24 26 28 30 32 29 28 32 34 34 32 29 27 28 27 27 31 33 29 27 26 24 24 25 24 25 27 27 27 27 27 27 28 27 26 26 26 26 26 26 27 28 29 28 26 24 23 24 22 20
3 3 3 2 4 5 4 4 7 5 2 11 19 18 15 13 10 8 10 14 16 18 19 21 23 24 23 23 20 17 18 19 20 22 23 23 23 25 29 32 32 29 31 34 34 33 31 28 28 31 29 29 32 31 28 27 26 24 24 25 25 28 29 27 27 28 28 28 28 27 27 27 27 27 26 26 26 28 28 26 23 22 23 22 20 19
2 3 5 4 3 5 5 4 6 6 7 17 22 15 9 10 9 10 13 13 14 18 22 22 21 21 23 23 21 20 21 22 23 24 23 22 23 25 30 31 29 29 33 34 32 32 32 30 29 31 29 29 30 29 27 27 26 24 25 25 27 30 28 27 28 29 29 29 28 28 28 27 28 27 26 25 25 25 25 25 24 23 22 20 19 20
1 2 4 4 2 4 5 3 4 7 10 16 16 11 8 10 10 12 13 12 13 17 19 18 19 22 23 21 21 22 22 22 23 23 22 22 22 24 29 31 30 31 34 33 31 32 33 30 29 30 29 29 30 28 27 27 26 26 26 27 29 30 28 28 30 30 29 29 28 28 28 27 28 28 26 25 25 24 23 24 23 22 21 19 18 18
2 1 3 4 2 1 5 7 6 7 9 11 9 8 10 12 12 12 13 13 14 16 16 16 18 22 22 22 21 21 20 21 22 21 21 21 21 23 28 30 30 32 33 31 31 33 33 30 30 30 29 30 31 29 27 27 28 27 27 29 31 29 29 31 32 31 30 30 29 29 28 28 28 27 25 25 24 22 22 22 22 21 20 19 18 17
2 1 1 3 4 4 6 7 8 10 12 13 10 8 11 13 13 12 12 13 13 14 14 15 18 19 20 20 19 17 18 21 21 20 20 20 20 25 29 30 30 32 31 30 32 34 33 31 30 30 29 31 31 29 28 29 29 28 29 31 31 30 30 32 32 31 30 30 29 29 28 28 28 27 26 26 24 22 21 21 21 20 20 19 18 16
3 2 1 3 7 7 5 6 10 13 14 14 11 11 14 14 12 11 11 12 13 13 15 18 20 20 19 19 17 17 19 21 20 20 20 18 19 25 28 28 29 30 29 30 32 33 32 30 30 30 30 31 31 30 30 32 32 31 31 31 30 31 32 32 31 30 30 30 30 29 28 27 27 27 28 27 25 24 23 23 22 21 20 19 18 17
3 3 4 6 7 6 7 9 13 13 11 9 9 12 13 13 13 14 15 15 16 17 19 22 22 19 18 18 18 18 19 20 20 20 19 17 20 24 27 28 30 30 30 31 32 32 31 29 30 30 30 30 31 33 33 34 34 33 32 32 31 32 33 32 31 30 30 29 29 28 27 27 26 27 27 27 25 24 23 25 24 23 22 20 19 19
3 4 5 7 7 7 8 11 15 15 12 10 12 13 13 12 14 15 16 17 18 18 20 23 23 21 20 20 20 20 18 18 21 22 19 17 20 25 27 29 30 29 30 31 30 31 32 31 30 31 30 30 32 34 34 35 35 35 33 32 32 33 33 33 32 30 29 29 28 28 28 27 26 26 25 26 26 26 24 23 21 21 23 23 20 19
4 5 5 6 7 7 9 11 13 13 12 11 13 14 13 13 14 14 15 16 17 19 20 20 21 23 24 23 23 22 18 17 22 26 22 20 23 26 29 30 30 29 30 30 30 31 33 32 31 31 30 31 34 35 35 36 36 35 34 33 34 34 34 33 32 29 28 29 28 28 28 27 27 26 25 24 25 26 27 26 21 16 17 20 21 20
3 4 5 5 5 8 11 11 9 8 10 12 14 14 13 15 15 14 15 17 18 21 22 19 18 19 21 24 26 25 21 20 24 26 23 23 25 28 29 29 28 28 30 30 31 32 33 33 33 32 31 33 35 36 36 36 36 36 35 35 35 35 35 34 30 27 27 28 28 28 28 27 26 26 25 24 23 22 23 26 27 23 18 17 19 21
Wind_Direction
55 62 40 11 302 306 298 223 167 180 191 270 304 281 285 290 284 284 285 296 359 345 287 289 306 292 302 334 349 115 104 94 100 90 84 84 74 71 68 48 33 35 12 0 7 10 17 21 13 5 359 353 349 347 347 349 349 347 344 340 338 337 336 332 333 337 337 335 334 331 327 323 321 319 316 313 311 308 304 298 290 285 285 296 304 306
59 69 7 295 265 280 314 295 95 56 52 19 360 333 325 312 296 294 282 289 8 2 298 314 332 304 337 14 24 89 93 90 99 94 88 88 83 74 63 45 25 10 359 7 10 10 12 9 2 357 352 348 344 342 346 347 345 342 339 337 335 333 329 327 328 330 330 328 327 326 324 322 320 318 318 316 313 310 306 302 296 291 289 292 298 302
43 52 311 290 274 59 27 40 54 32 20 9 1 356 335 314 304 296 256 260 18 346 302 327 347 327 25 39 40 69 86 86 86 92 94 89 78 62 51 38 18 9 7 15 16 9 5 358 353 351 347 344 342 343 345 342 339 337 333 332 331 328 325 329 332 331 328 324 322 319 315 314 315 317 317 318 316 312 307 305 302 298 295 294 294 296
47 333 307 326 46 58 18 11 43 26 359 348 333 343 312 304 331 311 285 306 336 275 279 311 323 15 58 53 51 60 83 86 80 86 87 82 77 68 56 37 15 17 15 11 13 4 358 352 349 347 344 343 345 346 343 338 334 330 326 327 327 322 321 330 333 330 326 322 321 319 313 307 305 310 315 318 318 314 311 308 308 306 304 302 298 296
218 266 286 55 43 55 25 358 48 39 340 308 256 287 310 307 305 276 285 309 318 277 274 321 331 24 69 76 77 71 77 78 77 78 74 71 73 63 43 31 19 21 17 9 6 356 352 349 346 344 342 346 350 345 338 333 329 324 320 320 318 311 319 328 328 327 324 321 321 322 319 312 308 313 317 318 318 315 313 310 309 310 308 306 303 299
283 271 330 51 24 41 54 359 64 113 339 317 254 244 288 297 297 287 293 319 339 317 333 22 3 321 71 103 112 100 80 74 68 71 70 57 47 39 28 21 15 19 17 8 360 350 347 345 343 343 345 349 345 338 333 328 324 321 315 312 315 322 328 328 325 326 326 322 320 320 318 316 316 318 316 315 314 312 312 310 309 309 309 308 304 300
322 329 51 78 41 30 38 354 245 167 8 315 251 247 280 290 300 299 304 331 351 285 310 52 99 253 289 113 142 128 98 89 78 68 61 44 34 33 24 14 12 12 7 2 353 346 344 344 344 344 345 344 337 332 328 322 321 322 317 315 325 329 326 322 321 325 327 325 321 317 315 314 314 312 311 311 311 310 310 309 306 306 308 310 308 303
299 350 22 54 51 35 22 339 271 196 13 276 264 326 309 304 305 299 303 290 234 268 314 1 161 234 280 86 164 146 107 89 77 59 42 34 29 28 20 12 13 7 358 356 348 343 345 346 347 344 341 338 333 329 325 319 321 323 318 317 321 320 317 315 314 316 322 324 321 317 314 312 310 308 309 311 313 312 311 309 305 305 307 308 307 305
294 356 341 9 42 31 331 296 267 208 247 264 273 301 283 294 298 290 294 270 250 241 301 320 341 274 303 58 180 179 121 94 71 44 25 23 23 20 15 9 8 2 355 352 344 342 347 348 347 343 339 336 332 331 327 322 324 322 315 317 320 317 316 314 309 307 314 317 312 308 306 303 303 306 309 314 317 318 317 313 311 311 311 309 305 303
289 272 228 126 75 323 275 276 245 188 261 272 285 301 286 287 281 277 280 260 295 190 241 289 3 344 307 150 189 208 113 88 34 26 17 15 19 15 8 3 359 356 353 348 345 345 346 345 344 342 339 337 336 334 330 326 325 320 315 319 320 317 317 315 309 303 305 309 303 297 297 294 297 305 311 318 321 322 322 319 317 316 315 314 311 307
299 280 186 122 133 221 258 274 225 195 261 304 347 332 316 301 258 284 321 91 33 296 236 232 146 30 315 218 179 157 113 107 44 16 8 8 12 8 0 358 355 353 350 345 342 341 341 342 345 345 343 341 339 338 336 333 331 327 323 324 322 320 319 316 311 303 300 304 300 292 290 287 293 304 311 316 319 321 324 321 318 317 316 316 315 313
332 13 164 283 266 144 306 286 270 262 307 4 21 338 334 327 324 360 8 37 12 295 251 208 36 360 286 235 136 131 141 116 83 32 10 6 5 359 350 351 352 349 344 340 339 341 343 345 347 346 343 342 343 345 344 340 338 336 333 330 328 326 323 317 312 305 303 307 302 290 282 279 284 294 303 309 311 314 321 321 316 314 314 314 315 315
339 289 286 305 299 52 1 311 317 335 4 19 9 4 357 339 339 339 333 343 305 279 254 237 7 338 243 205 126 144 140 100 101 84 31 9 358 351 349 351 349 345 342 344 348 346 345 346 343 340 341 345 349 348 343 340 338 336 333 332 329 327 326 322 317 313 313 314 306 291 279 275 275 280 292 298 303 309 315 316 314 310 308 310 313 314
328 299 324 345 340 28 21 348 328 326 354 358 353 41 19 336 326 310 304 315 290 276 260 309 349 302 249 111 133 154 133 94 96 89 50 22 4 350 346 346 343 346 351 353 350 343 340 338 333 333 342 348 347 344 339 337 338 336 333 333 330 328 329 328 323 320 319 317 310 297 283 274 271 274 285 292 297 304 308 311 310 304 302 303 306 309
333 307 316 8 319 342 357 291 268 293 310 306 195 129 77 301 289 283 261 285 295 291 294 331 323 250 245 157 144 147 128 101 85 84 75 34 7 340 335 344 350 353 354 351 342 334 334 330 326 334 347 345 341 338 336 334 335 335 334 333 330 329 329 328 324 321 318 315 312 303 288 275 270 275 284 292 297 302 305 308 305 298 296 299 301 304
304 269 265 304 263 340 348 286 221 341 306 276 138 88 329 227 203 258 246 235 277 288 287 312 261 220 169 144 143 139 138 113 66 29 22 11 357 349 350 355 356 352 348 344 337 333 331 326 324 340 345 339 335 333 331 331 331 332 333 332 330 328 326 325 323 320 318 315 314 309 293 276 275 288 294 300 303 306 307 306 302 297 297 299 301 303
326 272 285 324 310 260 339 289 265 66 308 320 11 294 269 199 157 251 277 250 308 293 274 194 255 277 80 161 174 122 53 33 13 3 6 356 351 355 356 356 351 344 342 340 334 331 327 321 325 339 337 331 330 328 326 327 327 329 330 330 330 328 325 322 318 316 318 318 320 316 299 282 294 303 304 309 307 307 309 307 306 305 304 304 303 302
229 284 290 307 293 281 271 272 276 172 124 4 314 280 275 234 124 164 286 302 325 280 273 177 230 262 306 244 275 22 13 6 354 348 348 343 355 359 350 346 339 334 334 331 328 326 321 315 320 330 328 325 324 322 322 323 324 327 328 329 330 327 323 320 316 313 316 320 322 320 307 299 308 308 307 309 306 306 312 313 312 310 308 306 304 302
181 293 298 248 260 294 323 27 315 310 40 227 264 300 358 329 315 348 304 298 295 281 287 282 266 251 226 248 355 14 2 348 329 327 338 347 357 352 336 332 327 326 327 322 320 318 313 308 315 323 322 321 320 319 320 320 322 325 328 329 330 326 322 319 315 313 314 316 317 314 307 304 307 306 305 305 303 309 314 313 312 311 308 306 303 301
234 269 290 296 338 320 337 21 315 301 316 330 337 356 22 292 280 285 272 290 296 284 286 295 295 273 196 210 30 3 327 306 302 314 337 344 345 332 325 324 320 322 321 314 312 310 304 303 312 319 318 317 317 316 317 319 322 326 329 329 328 325 321 316 314 314 313 314 314 313 310 307 304 303 304 305 308 313 313 312 311 309 306 304 301 299
360 201 266 294 340 346 335 297 259 279 305 344 352 329 324 313 272 281 274 178 197 276 285 296 294 282 137 121 93 281 237 222 266 311 330 330 327 320 316 316 315 317 314 309 309 305 300 303 311 315 315 314 313 313 317 321 323 327 328 327 327 324 318 312 311 312 311 312 313 312 309 305 305 307 309 311 312 312 311 311 309 305 302 301 299 297
15 218 255 295 325 322 289 258 225 245 266 312 320 302 298 298 301 308 299 281 159 255 256 280 287 288 131 137 132 175 225 220 306 330 329 323 319 315 313 313 312 311 310 308 306 300 297 303 309 311 312 312 312 315 321 323 325 327 327 328 328 324 318 313 312 313 313 313 311 309 309 311 315 317 315 313 312 312 313 310 306 303 300 298 296 294
163 140 266 286 283 268 277 280 161 204 246 227 251 250 275 290 293 296 294 301 301 279 258 255 274 290 137 146 130 124 198 347 358 332 322 319 314 311 312 311 309 308 309 308 304 297 297 303 307 308 310 312 313 318 322 325 327 327 327 330 329 324 317 315 315 315 313 311 311 313 316 317 318 318 317 318 319 318 314 308 304 302 299 298 298 296
104 69 320 300 292 276 283 310 80 109 352 330 293 292 321 287 260 251 270 295 298 285 291 282 274 290 161 164 102 25 47 1 343 319 312 309 305 307 307 307 310 311 310 307 301 294 297 303 306 308 310 313 316 319 323 327 329 329 328 330 329 323 319 319 319 315 313 314 317 318 315 316 321 326 327 325 321 318 313 308 308 307 305 304 303 302
294 346 348 326 322 321 327 335 323 316 344 326 295 295 297 284 294 293 288 317 277 257 277 288 287 298 302 319 332 340 353 342 320 311 309 307 308 311 310 309 311 312 310 307 304 300 303 306 308 309 312 315 319 322 328 331 331 331 330 330 328 325 321 321 318 314 316 320 318 315 315 321 328 328 324 320 316 313 309 308 312 312 308 304 302 303
269 251 27 343 317 317 321 321 318 322 326 313 296 300 301 283 288 296 307 319 279 262 261 266 282 300 322 329 328 333 343 334 321 317 312 308 309 311 312 312 310 310 311 309 306 305 309 311 311 312 314 317 323 330 334 333 331 333 333 330 327 324 321 319 316 314 317 318 316 317 324 328 326 321 317 316 314 309 305 304 306 305 301 300 303 307
91 253 224 205 225 262 281 285 295 308 308 303 304 306 308 303 288 287 306 291 299 309 294 269 290 308 317 321 326 337 341 330 323 321 317 313 314 313 311 309 307 309 310 307 307 309 313 316 316 316 316 320 331 338 335 332 332 335 335 332 327 323 321 319 317 316 316 315 317 324 328 326 322 318 315 314 310 306 302 301 299 299 301 307 313 314
72 314 258 218 226 246 264 279 289 296 288 287 297 302 308 313 309 207 246 294 331 332 305 304 317 314 311 317 330 340 334 322 318 319 319 317 315 312 308 306 307 309 309 309 311 313 316 320 321 319 322 329 339 336 331 332 334 334 334 332 328 323 321 319 318 317 316 316 317 320 321 320 316 314 313 310 307 304 302 300 297 300 311 318 318 313
116 263 256 228 262 269 271 280 288 289 278 281 293 300 306 310 306 220 259 306 336 316 293 307 313 307 306 320 336 337 327 318 315 317 318 316 313 311 309 309 310 311 311 312 315 317 320 324 323 321 328 337 337 329 325 327 333 336 335 333 329 324 322 321 320 318 317 318 319 318 317 313 308 308 309 310 310 310 309 306 304 308 316 317 314 311
137 262 268 261 285 288 287 282 280 285 296 300 301 304 312 315 314 319 298 298 299 284 286 299 302 301 309 328 332 327 322 317 315 317 318 316 314 312 310 311 315 315 315 315 317 321 323 323 323 325 332 338 333 330 331 330 332 338 338 334 329 325 325 323 320 319 319 319 318 315 313 309 307 308 311 312 314 314 311 310 310 312 314 312 309 307
65 293 302 6 307 299 295 289 293 307 307 302 303 317 347 13 357 338 314 301 301 297 297 301 301 301 319 334 322 320 322 322 321 320 321 319 315 312 312 316 319 318 318 319 321 323 325 326 327 331 336 337 334 336 337 336 336 338 337 333 329 326 326 325 321 320 319 317 315 312 311 312 312 313 314 313 312 310 308 309 310 311 310 308 306 304
35 303 328 27 329 300 305 322 323 318 307 303 318 337 358 18 352 314 309 316 316 310 309 310 309 312 328 327 319 320 326 325 322 321 321 317 313 314 317 320 322 322 321 323 325 327 331 331 332 338 342 340 339 340 339 339 339 338 334 332 328 326 326 324 322 321 318 315 314 314 316 318 317 316 313 311 310 310 309 308 309 309 307 305 305 303
73 325 325 4 319 301 315 326 318 311 314 323 335 331 335 341 332 316 317 322 317 313 313 316 320 324 325 324 322 324 327 324 321 320 317 313 314 318 322 323 323 323 324 329 333 334 336 336 337 343 346 342 342 341 339 340 341 338 334 329 326 325 324 323 322 320 318 318 318 320 321 320 317 315 312 311 311 311 310 309 306 305 304 303 303 301
45 27 305 300 289 297 306 315 315 319 338 338 225 186 333 338 330 323 325 324 319 317 320 323 323 321 322 324 324 323 323 320 316 314 311 313 318 322 326 326 324 326 335 340 339 339 341 342 342 344 345 344 343 339 337 339 341 338 334 329 325 325 324 323 323 322 321 323 324 323 322 318 316 315 313 313 313 311 310 308 305 303 302 301 300 299
339 342 295 240 219 282 298 329 338 328 330 302 170 20 339 320 319 322 320 319 320 324 331 327 322 321 323 323 319 316 315 311 310 310 309 316 327 330 330 331 332 338 345 345 345 348 345 341 341 343 346 346 340 337 338 343 341 336 333 330 326 325 325 323 324 325 326 326 325 323 321 320 318 317 316 314 313 311 309 306 304 303 302 299 297 297
301 314 301 254 253 306 328 351 332 307 308 57 58 355 340 326 330 328 319 323 335 342 338 330 324 324 323 318 314 313 310 307 306 306 310 326 336 336 334 337 342 347 350 351 351 345 338 339 345 348 347 342 337 338 348 350 341 334 332 330 327 326 327 326 326 328 328 327 325 324 323 322 320 317 316 315 313 310 308 306 305 303 301 300 298 295
250 290 351 322 259 321 323 312 289 293 308 17 23 348 343 342 344 334 319 327 7 12 341 333 325 323 321 317 318 318 314 312 307 303 325 338 339 339 341 345 350 356 356 350 343 339 341 348 351 348 342 337 337 347 356 348 340 335 332 332 331 329 330 330 331 331 329 327 327 326 324 322 319 316 315 314 312 309 309 307 305 304 304 301 299 297
107 200 115 321 296 36 331 311 310 315 323 1 347 340 352 352 341 327 312 315 6 357 342 332 323 324 324 323 325 324 320 319 315 321 341 344 344 348 349 353 360 1 353 344 341 347 354 353 348 344 339 338 345 359 355 345 340 337 335 335 334 332 333 333 332 331 330 329 328 326 323 320 318 316 314 313 311 310 309 307 305 308 311 305 299 301
5 9 124 152 283 331 346 313 308 307 309 337 338 342 355 350 331 321 312 316 348 349 338 328 325 327 328 327 329 329 327 328 326 333 343 346 352 355 354 358 0 354 348 348 352 356 351 346 345 343 341 346 358 359 351 346 342 339 338 337 336 334 335 335 333 332 331 329 327 324 321 320 319 318 316 315 313 310 310 310 310 311 312 306 300 303
355 5 46 356 288 304 315 296 292 282 293 341 350 349 351 343 333 335 329 324 339 343 335 329 329 330 331 332 333 335 337 334 330 333 343 350 354 354 356 359 353 347 350 355 356 352 346 343 346 344 345 358 3 354 348 346 343 341 339 337 336 337 337 335 332 331 330 328 327 324 322 322 321 320 318 317 315 313 313 316 316 315 315 314 311 310
349 4 22 283 289 309 302 285 306 299 295 347 355 353 349 342 343 360 343 325 333 335 330 331 332 333 336 337 336 338 336 331 329 334 343 350 349 348 354 354 347 348 358 357 351 348 344 344 348 350 355 3 358 349 347 345 342 342 339 337 339 339 336 333 332 331 330 328 327 326 324 324 324 324 322 320 319 318 318 320 320 317 316 316 315 314
345 341 339 320 306 311 298 300 320 312 356 11 359 355 358 353 349 350 333 326 327 326 329 337 336 336 341 340 336 334 329 330 335 339 343 348 346 345 349 348 346 352 359 354 348 348 347 348 353 352 353 355 351 347 346 345 343 343 339 339 340 337 334 333 333 332 331 329 328 327 327 328 328 327 325 324 324 322 322 324 324 320 318 317 316 320
317 330 334 324 307 314 315 333 334 318 357 10 359 353 7 4 342 329 326 326 327 329 334 338 338 340 342 337 334 333 332 335 341 341 342 346 345 343 344 345 350 357 355 347 346 352 354 355 354 350 348 349 347 346 347 347 344 341 339 339 339 336 334 335 334 332 330 329 329 329 329 330 330 330 328 328 328 326 325 327 327 326 326 325 323 324
267 345 335 305 310 353 332 311 317 318 344 3 356 342 351 351 335 328 327 327 333 338 339 338 338 342 341 335 335 338 338 340 342 343 344 344 341 342 344 346 353 356 348 342 349 358 0 356 350 347 347 348 347 347 349 348 343 340 339 338 336 335 335 335 333 332 331 331 331 331 331 332 332 332 331 331 332 329 326 328 330 329 330 329 326 325
261 282 299 276 245 227 265 270 297 324 340 352 345 333 341 342 337 336 334 333 338 343 343 340 338 339 339 339 341 340 340 342 343 344 345 339 338 344 346 347 352 349 342 346 356 1 358 352 347 345 346 348 349 349 348 346 343 339 338 336 335 335 335 334 333 332 332 332 332 332 333 333 333 333 334 334 334 330 328 330 330 329 330 331 329 327
270 244 242 271 283 277 267 284 319 336 336 337 339 345 348 343 340 342 342 341 343 345 345 342 337 338 342 345 345 343 342 343 342 342 341 337 340 346 347 347 348 345 345 355 0 356 351 347 345 345 346 347 349 348 346 345 343 338 336 336 336 336 335 334 334 333 333 334 334 334 334 334 334 335 337 337 338 336 333 333 332 330 330 330 329 326
304 310 306 318 324 320 301 306 328 335 333 332 339 349 348 344 345 350 348 344 344 345 344 342 340 343 348 349 347 346 344 341 340 341 340 340 345 347 346 347 346 345 352 359 356 350 347 346 345 346 346 346 346 346 344 342 342 340 338 337 337 336 336 336 335 334 334 334 334 335 336 336 336 337 338 340 342 341 340 339 337 333 329 328 327 325
312 333 333 324 321 308 293 310 328 331 327 333 347 349 345 344 349 353 349 343 343 345 346 347 348 351 352 349 347 347 344 341 342 342 341 344 348 345 345 348 347 347 353 355 350 347 347 346 344 344 344 343 343 342 341 341 342 342 340 339 339 339 337 337 336 335 335 335 336 336 337 337 337 337 338 339 341 341 340 339 338 333 328 326 323 318
307 334 331 320 317 305 304 327 339 334 327 344 357 349 344 348 351 349 345 344 347 349 350 351 354 354 350 347 347 347 344 341 345 346 345 345 346 345 347 348 347 347 350 350 347 348 347 345 342 341 340 341 341 341 341 342 342 342 342 341 341 341 339 338 337 336 336 337 338 338 338 338 338 338 338 338 339 340 340 338 335 328 325 330 328 317
337 346 339 333 331 324 324 338 346 336 325 336 347 344 346 353 351 346 345 348 353 355 352 350 351 351 349 348 350 350 345 342 347 349 347 345 345 347 348 347 345 346 348 347 346 347 346 344 341 339 338 340 342 342 342 342 342 343 343 342 343 342 341 339 337 337 338 339 339 338 338 338 338 339 339 338 338 338 339 341 341 331 323 327 331 329
356 343 340 332 313 308 318 331 343 331 314 323 336 341 349 355 353 348 350 354 356 355 353 351 348 347 346 348 351 352 348 345 348 349 347 345 347 348 347 346 345 346 347 346 346 346 344 343 341 339 339 341 343 343 342 342 343 344 344 344 344 343 342 340 338 337 337 338 338 338 338 337 336 337 339 338 338 337 336 340 344 347 346 342 337 339